{"data":{"norad_id":46488,"epoch":"2026-09-20T03:13:41.278656Z","epoch_age_seconds":105242,"freshness":"FRESH","line1":"1 46488U 20068C   26263.13450554  .00000049  00000+0  28214-3 0  9994","line2":"2 46488  82.4926 287.9900 0013262 194.6785 165.3911 12.42895147271045","mean_motion":12.42895147,"eccentricity":0.0013262,"inclination_deg":82.4926,"raan_deg":287.99,"arg_perigee_deg":194.6785,"mean_anomaly_deg":165.3911,"bstar":0.00028214,"rev_number":27104,"period_min":115.85852623818,"perigee_km":1483.9136289789,"apogee_km":1504.7946244433,"semimajor_km":7872.4911267111,"source":"CELESTRAK","updated_at":"2026-09-20T09:00:14.759920Z"}}